DateTimeUTC,F1_A11,F1_S11,BsB_S11,BsG_S11,BsR_S11,BbsB_S11,BbsG_S11,BbsR_S11,BaB_A11,BaG_A11,BaR_A11,Tu_S11,T_S11,Uu_S11,U_S11,P_S11,T1_A11
2021-07-29T03:00:00Z,00000200,20000000,,,,,,,-000.26,-000.21,-000.47,18.5,25.2,11.4,07.5,0685.6,31.1
2021-07-29T03:01:00Z,00000200,20000000,,,,,,,0000.17,0000.41,0000.40,18.5,25.3,11.2,07.4,0685.7,31.1
2021-07-29T03:02:00Z,00000200,20000000,,,,,,,-000.07,-000.11,0000.02,18.5,25.3,11.2,07.4,0685.7,31.1
2021-07-29T03:03:00Z,00000200,60000000,,,,,,,0000.93,0000.73,0000.95,18.5,25.3,11.2,07.4,0685.7,31.1
2021-07-29T03:04:00Z,00000200,40000000,0008.04,0006.88,0004.05,0001.07,0000.57,0000.43,0000.93,0000.84,-000.24,18.8,25.2,11.0,07.5,0686.7,31.1
2021-07-29T03:05:00Z,00000200,00000000,0007.57,0005.37,0003.48,0000.43,0000.73,0000.81,0001.24,0000.97,0001.39,18.9,25.2,11.0,07.5,0686.7,31.1
2021-07-29T03:06:00Z,00000200,00000000,0007.16,0005.39,0003.13,0001.32,0000.59,0000.65,0000.87,0000.77,0000.45,18.9,25.2,11.0,07.5,0686.7,31.1
2021-07-29T03:07:00Z,00000200,00000000,0007.52,0005.51,0003.19,0000.83,0000.73,0000.45,0000.48,0000.69,0000.70,18.9,25.1,11.0,07.5,0686.7,31.1
2021-07-29T03:08:00Z,00000200,00000000,0007.28,0005.63,0003.57,0001.13,0000.75,0000.74,0000.34,0000.66,0000.19,18.9,25.1,10.8,07.3,0686.7,31.1
2021-07-29T03:09:00Z,00000200,00000000,0006.83,0005.38,0003.19,0000.74,0000.52,0000.82,0001.06,0000.40,0000.63,18.9,25.1,10.6,07.3,0686.7,31.1
2021-07-29T03:10:00Z,00000200,00000000,0006.43,0005.03,0002.70,0001.11,0000.30,0000.62,0000.66,0001.02,0000.63,18.8,25.1,10.6,07.2,0686.7,31.1
2021-07-29T03:11:00Z,00000200,00000000,0006.51,0005.03,0002.58,0002.18,0000.61,0000.52,0000.85,0000.61,0000.30,18.8,25.1,10.6,07.2,0686.7,31.1
2021-07-29T03:12:00Z,00000200,00000000,0006.38,0004.97,0002.67,0000.70,0000.51,0000.52,0000.89,0000.74,0000.43,18.8,25.1,10.8,07.4,0686.7,31.1
2021-07-29T03:13:00Z,00000200,00000000,0007.29,0005.58,0003.14,0000.59,0000.69,0000.51,0001.01,0000.24,0000.73,18.8,25.1,10.7,07.3,0686.7,31.1
2021-07-29T03:14:00Z,00000200,00000000,0006.81,0004.99,0003.24,0000.80,0000.43,0000.52,0000.52,0000.88,0000.82,18.8,25.1,10.7,07.3,0686.7,31.1
2021-07-29T03:15:00Z,00000200,00000000,0005.89,0005.05,0003.01,0000.93,0000.51,0000.42,0000.60,0001.00,0000.27,18.8,25.1,10.7,07.3,0686.7,31.1
2021-07-29T03:16:00Z,00000200,00000000,0006.69,0004.80,0003.21,0000.98,0000.91,0000.46,0000.53,0000.87,0000.38,18.8,25.1,10.6,07.2,0686.7,31.1
2021-07-29T03:17:00Z,00000200,00000000,0007.22,0005.44,0003.34,0000.43,0000.86,0000.38,0001.23,0000.25,0000.63,18.8,25.1,10.4,07.1,0686.7,31.1
2021-07-29T03:18:00Z,00000200,00000000,0005.86,0005.20,0002.63,0000.45,0000.75,0000.11,0000.62,0000.87,0000.75,18.8,25.1,10.5,07.1,0686.7,31.1
2021-07-29T03:19:00Z,00000200,00000000,0007.45,0005.19,0003.14,0001.40,0000.48,0000.53,0000.56,0000.80,0000.21,18.7,25.1,10.4,07.1,0686.7,31.1
2021-07-29T03:20:00Z,00000200,00000000,0006.47,0004.96,0003.23,0000.33,0000.62,0000.59,0000.39,-000.02,0000.53,18.7,25.0,10.3,07.0,0686.7,31.1
2021-07-29T03:21:00Z,00000200,00000000,0005.31,0004.48,0002.68,0000.78,0000.29,0000.53,0000.78,0000.31,0000.34,18.7,25.0,10.1,06.9,0686.7,31.1
2021-07-29T03:22:00Z,00000200,00000000,0006.59,0004.27,0002.76,0000.66,0000.20,0000.42,0000.32,0000.76,-000.19,18.7,25.0,10.0,06.8,0686.7,31.1
2021-07-29T03:23:00Z,00000200,00000000,0006.12,0004.50,0002.77,0000.51,0000.44,0000.49,0000.64,0000.32,0000.73,18.7,25.0,09.9,06.7,0686.7,31.1
2021-07-29T03:24:00Z,00000200,00000000,0006.01,0004.79,0002.64,0000.55,0000.58,0000.65,0000.15,0000.61,0000.23,18.7,25.0,09.8,06.7,0686.7,31.1
2021-07-29T03:25:00Z,00000200,00000000,0005.37,0003.63,0002.72,0000.22,0000.70,0000.25,0000.91,0000.49,0000.53,18.7,25.0,09.7,06.6,0686.6,31.1
2021-07-29T03:26:00Z,00000200,00000000,0005.61,0003.93,0002.65,0000.71,0000.54,0000.26,0000.84,0000.71,0000.42,18.7,25.0,09.8,06.6,0686.6,31.1
2021-07-29T03:27:00Z,00000200,00000000,0004.42,0003.73,0002.11,0000.42,0000.38,0000.45,0000.24,0000.39,0000.33,18.7,25.0,09.7,06.6,0686.7,31.1
2021-07-29T03:28:00Z,00000200,00000000,0005.95,0004.07,0002.44,0000.60,0000.59,0000.56,0000.78,0000.66,0000.60,18.7,25.0,09.6,06.6,0686.7,31.1
2021-07-29T03:29:00Z,00000200,00000000,0005.58,0004.44,0002.30,0000.53,0000.47,0000.39,0000.57,0000.69,0000.41,18.7,25.0,09.7,06.6,0686.7,31.1
2021-07-29T03:30:00Z,00000200,00000000,0005.22,0004.31,0002.08,0000.10,0000.40,0000.22,0000.63,0000.63,0000.13,18.6,25.0,09.6,06.5,0686.7,31.1
2021-07-29T03:31:00Z,00000200,00000000,0004.81,0003.77,0001.71,0000.62,-000.00,0000.42,0001.16,0000.75,0000.66,18.6,25.0,09.6,06.5,0686.7,31.1
2021-07-29T03:32:00Z,00000200,00000000,0004.58,0003.32,0001.60,0000.35,0000.35,0000.59,0000.63,0000.25,0000.62,18.7,25.0,09.6,06.5,0686.7,31.1
2021-07-29T03:33:00Z,00000200,00000000,0004.21,0003.22,0001.69,0000.20,0000.43,0000.27,0000.74,0000.83,0000.45,18.7,25.0,09.6,06.6,0686.7,31.1
2021-07-29T03:34:00Z,00000200,00000000,0004.84,0003.55,0002.14,0000.46,0000.45,0000.35,0000.49,0000.63,0000.46,18.7,25.0,09.8,06.6,0686.7,31.1
2021-07-29T03:35:00Z,00000200,00000000,0004.67,0003.62,0001.82,0000.85,0000.34,0000.23,0000.62,0000.97,0000.69,18.7,25.0,09.8,06.7,0686.7,31.1
2021-07-29T03:36:00Z,00000200,00000000,0004.64,0003.58,0001.94,0000.77,0000.12,0000.57,0000.91,0000.39,0000.70,18.7,25.0,09.8,06.7,0686.7,31.1
2021-07-29T03:37:00Z,00000200,00000000,0004.89,0003.80,0001.56,0000.68,0000.20,0000.33,0000.36,0000.57,0000.10,18.7,25.0,09.9,06.8,0686.7,31.1
2021-07-29T03:38:00Z,00000200,00000000,0004.69,0003.37,0002.04,0000.78,0000.31,0000.61,0001.06,0000.43,0000.53,18.7,25.0,10.0,06.8,0686.7,31.1
2021-07-29T03:39:00Z,00000200,00000000,0004.48,0003.27,0001.50,0000.42,0000.24,0000.38,0000.38,0000.34,0000.30,18.7,25.0,09.9,06.7,0686.7,31.1
2021-07-29T03:40:00Z,00000200,00000000,0003.87,0003.02,0001.60,0000.84,0000.29,0000.50,0000.30,0000.61,0000.05,18.7,25.0,09.8,06.7,0686.7,31.1
2021-07-29T03:41:00Z,00000200,00000000,0004.39,0003.34,0001.82,0000.18,0000.32,0000.40,0000.39,0000.37,0000.56,18.7,25.0,09.9,06.7,0686.7,31.1
2021-07-29T03:42:00Z,00000200,00000000,0004.74,0003.07,0001.19,0000.34,0000.28,0000.30,0000.47,0000.23,0000.20,18.7,25.0,09.9,06.7,0686.7,31.1
2021-07-29T03:43:00Z,00000200,00000000,0004.82,0002.79,0001.37,0000.77,0000.27,0000.36,-000.10,0000.19,-000.15,18.7,25.0,09.7,06.6,0686.7,31.1
2021-07-29T03:44:00Z,00000200,00000000,0003.79,0002.51,0001.53,0000.11,0000.01,0000.59,0000.28,0000.27,0000.57,18.7,25.0,09.6,06.6,0686.7,31.1
2021-07-29T03:45:00Z,00000200,00000000,0002.96,0002.64,0001.35,0000.63,0000.34,0000.37,0000.11,-000.33,-000.38,18.6,25.0,09.4,06.4,0686.7,31.1
2021-07-29T03:46:00Z,00000200,00000000,0003.33,0002.54,0001.21,0000.68,0000.12,0000.68,0000.35,0000.23,-000.33,18.6,24.9,09.2,06.3,0686.7,31.1
2021-07-29T03:47:00Z,00000200,00000000,0002.66,0002.27,0001.22,0000.76,0000.09,0000.50,-000.09,0000.27,0000.44,18.6,24.9,09.2,06.2,0686.7,31.1
2021-07-29T03:48:00Z,00000200,00000000,0003.80,0002.39,0001.14,0000.27,0000.41,0000.38,-000.19,0000.20,0000.03,18.6,24.9,09.1,06.2,0686.7,31.1
2021-07-29T03:49:00Z,00000200,00000000,0002.69,0002.53,0001.63,0000.93,0000.69,0000.54,0000.48,-000.02,-000.04,18.6,24.9,08.9,06.0,0686.8,31.1
2021-07-29T03:50:00Z,00000200,00000000,0002.86,0002.21,0000.92,0000.71,0000.07,0000.25,-000.05,0000.34,0000.22,18.6,24.9,08.8,06.0,0686.8,31.0
2021-07-29T03:51:00Z,00000200,00000000,0003.48,0002.30,0001.42,-000.48,0000.12,-000.06,0000.39,0000.03,0000.22,18.6,24.9,08.8,06.0,0686.7,31.1
2021-07-29T03:52:00Z,00000200,00000000,0003.74,0002.62,0001.33,0000.28,0000.17,0000.14,-000.10,0000.11,0000.10,18.6,24.9,08.7,05.9,0686.7,31.1
2021-07-29T03:53:00Z,00000200,00000000,0003.68,0002.43,0001.69,0000.16,0000.32,0000.43,0000.54,0000.45,0000.14,18.5,24.9,08.6,05.8,0686.7,31.1
2021-07-29T03:54:00Z,00000200,00000000,0003.41,0002.70,0001.46,-000.04,0000.11,0000.13,0000.20,0000.06,-000.00,18.5,24.9,08.5,05.8,0686.7,31.1
2021-07-29T03:55:00Z,00000200,00000000,0002.87,0002.16,0001.54,0000.29,0000.23,0000.30,0000.44,0000.22,0000.11,18.5,24.9,08.5,05.8,0686.7,31.1
2021-07-29T03:56:00Z,00000200,00000000,0003.04,0002.12,0001.40,0000.33,0000.23,0000.06,0000.09,0000.37,0000.50,18.5,24.9,08.5,05.8,0686.7,31.1
2021-07-29T03:57:00Z,00000200,40000000,,,,,,,0001.53,0001.25,0000.90,18.6,24.9,08.4,05.7,0686.8,31.1
2021-07-29T03:58:00Z,00000200,60000000,,,,,,,-000.98,-001.18,-000.69,18.3,25.0,08.9,05.9,0685.7,31.0
2021-07-29T03:59:00Z,00000200,20000000,,,,,,,-000.60,-000.02,-000.23,18.2,25.1,08.8,05.8,0685.7,31.0
